Location: Ciula Mare
(45.6000°N, 22.8167°E)
Time: 19:57:43
(UTC+00:00)

Cosmos 1892 Rocket - Pass Details

Date: 03 February 2023
Orbit: 605 x 632 km, 82.5° (Epoch: 23 March)

Event Time Altitude Azimuth Distance (km) Brightness Sun altitude
Rises 17:03:39 0° 182° (S) 2,898 7.1 -15.3°
Reaches altitude 10° 17:05:53 10° 181° (S) 1,992 6.3 -15.7°
Maximum altitude 17:10:17 74° 97° (E) 651 3.4 -16.5°
Drops below altitude 10° 17:14:41 10° 12° (NNE) 1,991 6.0 -17.2°
Sets 17:16:55 0° 11° (N) 2,897 6.8 -17.6°
